Regional Weather Roundup
Issued by NWS Kansas City/Pleasant Hill, MO

Home | Current Version | Previous Version | Graphics & Text | Print | Product List | Glossary Off
Versions: 1 2 3 4 5 6 7 8 9 10 11 12 13 14 15 16 17 18 19 20 21 22 23 24 25 26 27 28 29 30 31 32 33 34 35 36 37 38 39 40 41 42 43 44 45 46 47 48 49 50

000
ASUS43 KEAX 241610
RWREAX

WEATHER ROUNDUP FOR EASTERN KANSAS AND NORTHWEST MISSOURI
NATIONAL WEATHER SERVICE KANSAS CITY/PLEASANT HILL MO
1100 AM CDT THU JUL 24 2014

KSZ040-057-103>105-MOZ028-029-037-043-241700-
...KANSAS CITY METROPOLITAN AREA...

CITY           SKY/WX    TMP DP  RH WIND       PRES   REMARKS
K.C. INTL      MOSUNNY   77  59  53 SE13G20   30.15F
K.C. DOWNTOWN  SUNNY     78  57  48 SE9       30.15S
LEES SUMMIT    SUNNY     76  58  53 E12       30.17S
OLATHE - IXD   SUNNY     77  58  51 E13       30.16S
OLATHE - OJC   SUNNY     75  58  55 SE13      30.15F
LAWRENCE       SUNNY     80  59  48 SE15      30.14F

$$

MOZ001>008-011>017-020>025-030>033-038>040-044>046-053-054-241700-
...NORTHERN AND CENTRAL MISSOURI...

CITY           SKY/WX    TMP DP  RH WIND       PRES   REMARKS
ST. JOSEPH     SUNNY     76  59  55 SE15      30.15S
MOSBY          SUNNY     73  59  60 E8        30.17S
WHITEMAN AFB   SUNNY     76  48  36 SE8       30.17R
CLINTON        SUNNY     77  59  53 E8        30.16F
SEDALIA        SUNNY     78  58  49 SE10      30.18S HAZE
WARSAW         NOT AVBL
MARSHALL       SUNNY     79  61  53 E7        30.18S
CHILLICOTHE      N/A     77  59  53 VRB7      30.18R
MOBERLY        SUNNY     75  57  53 SE6       30.19S
KIRKSVILLE     SUNNY     74  61  63 E7        30.18F

$$

MOZ041-047>049-056>058-063>065-088>090-097-241700-
...EASTERN AND SOUTHERN MISSOURI...

CITY           SKY/WX    TMP DP  RH WIND       PRES   REMARKS
ST. LOUIS INTL MOSUNNY   75  56  51 NE12G17   30.15F
SPIRIT OF STL  SUNNY     73  53  49 E6        30.15R
COLUMBIA       SUNNY     75  59  57 E8        30.18R
JEFFERSON CITY SUNNY     74  58  57 SE7       30.16S
MEXICO         SUNNY     77  61  57 N3        30.18S
HANNIBAL       SUNNY     77  46  33 NE7       30.18F
ROLLA          SUNNY     75  54  47 VRB7      30.16F
OSAGE BEACH    SUNNY     77  55  47 E12       30.16F
SPRINGFIELD    SUNNY     77  59  53 E12       30.15S
BRANSON        MOSUNNY   81  61  50 SE12      30.17R
NEVADA         SUNNY     79  63  57 SE7       30.16S
JOPLIN         MOSUNNY   81  66  60 E9G18     30.13S
WEST PLAINS    SUNNY     74  55  51 E9        30.17S
MALDEN         SUNNY     75  54  46 N10G18    30.10S

$$

IAZ060-094-KSZ022-034>040-054-083-096-NEZ052-066-093-241700-
...KANSAS...SOUTHEAST NEBRASKA AND IOWA...

CITY           SKY/WX    TMP DP  RH WIND       PRES   REMARKS
TOPEKA         SUNNY     80  62  54 SE13      30.14S
MANHATTAN      SUNNY     82  63  52 SE14      30.11S
EMPORIA        SUNNY     78  64  61 E13       30.13F
CHANUTE        SUNNY     78  66  66 E10       30.13S
WICHITA        SUNNY     81  67  62 SE12      30.10F
OMAHA          LGT RAIN  73  61  65 E9        30.17R
LINCOLN        MOSUNNY   80  61  52 S14       30.13R
FALLS CITY     SUNNY     78  61  55 SE12      30.14S
LAMONI         MOSUNNY   75  59  57 SE8       30.18R
DES MOINES     CLOUDY    76  61  59 VRB3      30.18R

$$




USA.gov is the U.S. government's official web portal to all federal, state and local government web resources and services.